SCP
0 0 0 0 0 0 0 0 0 0 0 0 0 0 0 0 0 0 0 0 0 0 0 0 0 0 0 0 0 0 0 0 0 0 0 0 0 0
0 0 0 0 0 0 0 0 0 0 0 0 0 0 0 0 0 0 0 0 0 0 0 0 0 0 0 0 0 0 0 0 0 0 0 0 0 0
0 0 0 0 0 0 0 0 0 0 0 0 0 0 0 0 0 0 0 0 0 0 0 0 0 0 0 0 0 0 0 0 0 0 0 0 0 0
0 0 0 0 0 0 0 0 0 0 0 0 0 0 0 0 0 0 0 0 0 0 0 0 0 0 0 0 0 0 0 0 0 0 0 0 0 0
0 0 0 0 0 0 0 0 0 0 0 0 0 0 0 0 0 0 0 0 0 0 0 0 0 0 0 0 0 0 0 0 0 0 0 0 0 0
0 0 0 0 0 0 0 0 0 0 0 0 0 0 0 0 0 0 0 0 0 0 0 0 0 0 0 0 0 0 0 0 0 0 0 0 0 0
0 0 0 0 0 0 0 0 0 0 0 0 0 0 0 0 0 0 0 0 0 0 0 0 0 0 0 0 0 0 0 0 0 0 0 0 0 0
0 0 0 0 0 0 0 0 0 0 0 0 0 0 0 0 0 0 0 0 0 0 0 0 0 0 0 0 0 0 0 0 0 0 0 0 0 0
0 0 0 0 0 0 0 0 0 0 0 0 0 0 0 0 0 0 0 0 0 0 0 0 0 0 0 0 0 0 0 0 0 0 0 0 0 0
0 0 0 0 0 0 0 0 0 0 0 0 0 0 0 0 0 0 0 0 0 0 0 0 0 0 0 0 0 0 0 0 0 0 0 0 0 0
0 0 0 0 0 0 0 0 0 0 0 0 0 0 0 0 0 0 0 0 0 0 0 0 0 0 0 0 0 0 0 0 0 0 0 0 0 0
0 0 0 0 0 0 0 0 0 0 0 0 0 0 0 0 0 0 0 0 0 0 0 0 0 0 0 0 0 0 0 0 0 0 0 0 0 0
0 0 0 0 0 0 0 0 0 0 0 0 0 0 0 0 0 0 0 0 0 0 0 0 0 0 0 0 0 0 0 0 0 0 0 0 0 0
0 0 0 0 0 0 0 0 0 0 0 0 0 0 0 0 0 0 0 0 0 0 0 0 0 0 0 0 0 0 0 0 0 0 0 0 0 0
0 0 0 0 0 0 0 0 0 0 0 0 0 0 0 0 0 0 0 0 0 0 0 0 0 0 0 0 0 0 0 0 0 0 0 0 0 0
0 0 0 0 0 0 0 0 0 0 0 0 0 0 0 0 0 0 0 0 0 0 0 0 0 0 0 0 0 0 0 0 0 0 0 0 0 0
0 0 0 0 0 0 0 0 0 0 0 0 0 0 0 0 0 0 0 0 0 0 0 0 0 0 0 0 0 0 0 0 0 0 0 0 0 0
0 0 0 0 0 0 0 0 0 0 0 0 0 0 0 0 0 0 0 0 0 0 0 0 0 0 0 0 0 0 0 0 0 0 0 0 0 0
0 0 0 0 0 0 0 0 0 0 0 0 0 0 0 0 0 0 0 0 0 0 0 0 0 0 0 0 0 0 0 0 0 0 0 0 0 0
0 0 0 0 0 0 0 0 0 0 0 0 0 0 0 0 0 0 0 0 0 0 0 0 0 0 0 0 0 0 0 0 0 0 0 0 0 0
0 0 0 0 0 0 0 0 0 0 0 0 0 0 0 0 0 0 0 0 0 0 0 0 0 0 0 0 0 0 0 0 0 0 0 0 0 0
0 0 0 0 0 0 0 0 0 0 0 0 0 0 0 0 0 0 0 0 0 0 0 0 0 0 0 0 0 0 0 0 0 0 0 0 0 0
0 0 0 0 0 0 0 0 0 0 0 0 0 0 0 0 0 0 0 0 0 0 0 0 0 0 0 0 0 0 0 0 0 0 0 0 0 0
Wind_Speed
4 5 4 4 4 4 4 5 5 6 6 4 3 3 3 4 5 6 6 6 7 8 8 9 9 8 8 9 9 10 10 10 10 10 10 10 11 12
4 5 5 4 3 3 4 5 5 6 6 4 4 5 4 4 5 6 6 7 6 7 7 8 8 8 8 8 9 10 10 10 10 11 12 12 11 12
5 5 5 5 4 4 4 4 5 5 7 6 5 5 6 6 5 5 6 6 4 5 6 7 7 8 8 8 8 9 10 10 10 10 11 11 11 11
5 5 5 4 5 4 4 5 5 6 6 8 6 5 6 6 6 6 5 5 5 5 6 7 7 8 8 7 7 8 9 8 8 8 9 10 10 10
6 6 6 5 6 4 5 5 5 5 5 6 6 5 5 4 6 6 6 5 5 5 6 6 7 7 8 7 7 8 8 8 8 8 8 9 9 10
6 6 6 6 6 6 5 6 5 5 5 6 6 5 5 5 4 4 5 4 4 4 5 6 6 7 7 7 7 7 7 7 8 8 8 8 8 9
6 6 6 6 7 7 5 5 5 5 5 5 5 5 5 4 4 4 5 5 5 4 5 4 4 4 5 5 6 6 7 7 8 8 7 7 8 9
6 6 6 6 7 9 9 8 7 6 6 6 5 6 6 5 4 4 5 5 5 2 5 5 4 5 4 4 5 6 6 7 8 8 8 8 8 9
7 6 5 5 7 6 7 8 8 9 10 8 7 7 7 6 6 6 6 6 6 4 5 6 4 5 4 4 6 6 7 8 8 8 8 8 9 9
7 7 7 6 6 6 6 6 7 7 8 7 7 7 7 6 6 6 6 6 6 4 4 6 5 5 5 5 5 6 7 8 8 9 9 9 9 10
7 7 7 7 7 8 7 7 7 6 7 8 9 8 7 7 6 4 4 4 5 4 3 4 4 5 5 5 4 6 7 8 9 9 9 9 9 10
6 7 9 9 9 9 7 7 7 6 5 5 6 6 5 5 6 5 4 4 4 4 2 3 3 4 4 3 4 4 5 7 8 8 9 9 9 7
5 5 5 9 10 10 9 7 7 7 5 5 4 4 3 3 3 3 3 4 4 4 2 2 3 3 4 5 5 4 4 5 5 6 7 8 9 7
6 5 5 8 9 9 8 7 8 6 4 4 3 3 3 3 3 3 3 4 4 5 5 4 4 4 4 5 5 4 4 5 5 5 5 7 8 9
5 6 7 7 8 7 8 8 6 4 4 4 4 3 3 3 3 3 3 3 4 4 4 5 5 4 5 5 5 5 5 5 5 5 5 6 6 5
5 6 8 8 6 6 5 5 4 4 4 4 3 3 3 3 3 2 2 2 3 3 3 4 4 5 5 6 6 6 6 5 5 5 6 6 6 5
4 3 4 4 4 4 4 3 3 3 4 3 3 3 3 3 3 2 3 3 3 3 3 3 3 4 5 6 6 6 5 5 6 6 6 7 6 6
5 4 4 4 4 4 4 4 4 3 3 3 3 4 3 3 3 3 3 3 3 3 3 3 3 3 3 4 5 6 5 5 5 6 6 7 7 6
6 5 4 4 4 4 4 4 4 3 3 3 4 4 4 4 3 3 3 3 3 4 3 3 3 3 4 5 3 4 5 5 6 6 6 6 8 8
5 5 4 4 4 4 4 4 3 3 3 4 4 4 4 4 4 4 4 4 4 4 4 3 3 4 4 5 5 4 6 6 6 6 7 7 7 10
4 4 4 4 4 4 4 4 4 3 4 4 4 4 4 4 4 4 4 5 5 4 4 4 3 4 4 3 5 5 5 6 8 7 7 7 8 7
4 4 4 4 4 4 4 3 3 3 4 4 4 4 4 4 4 5 4 4 4 4 5 4 3 3 3 4 6 6 7 6 6 9 11 10 7 6
4 4 4 4 4 4 3 4 4 4 4 4 4 4 4 4 4 4 4 4 4 4 4 4 3 3 3 4 5 6 7 7 6 6 6 7 10 13
Wind_Direction
267 264 263 266 266 266 268 269 274 282 280 280 282 293 308 306 316 299 300 312 310 307 305 305 304 300 295 292 292 294 295 295 292 288 281 276 275 274
264 264 263 263 265 264 264 264 264 272 278 290 293 300 298 293 302 299 300 301 295 300 302 304 303 302 298 294 293 293 293 290 290 284 279 277 276 277
258 259 262 265 265 262 262 265 265 265 271 279 284 293 288 289 294 295 296 294 293 295 302 305 302 300 297 293 295 295 296 291 288 289 283 278 277 276
260 258 261 261 262 266 264 263 265 266 271 279 282 284 283 289 293 295 295 293 294 297 294 296 295 294 293 291 294 296 299 299 297 297 296 291 287 281
258 257 261 261 263 263 266 267 267 268 268 274 281 285 284 285 290 293 295 294 294 295 287 285 287 290 289 287 289 295 297 297 297 297 298 297 292 291
258 258 260 259 262 264 264 266 268 270 270 272 277 281 282 287 285 290 293 294 293 294 291 290 289 283 282 284 288 292 293 292 293 293 292 292 294 293
254 254 256 260 266 267 268 270 270 270 271 272 275 278 279 283 285 291 290 297 290 288 295 292 291 285 282 276 276 284 287 290 293 291 290 294 298 297
254 254 254 251 255 259 265 270 271 269 270 269 271 273 278 279 285 283 286 290 289 295 298 295 295 288 286 282 292 294 289 290 292 293 293 295 297 295
252 253 252 252 255 257 258 259 263 266 268 271 269 270 277 277 278 276 274 280 283 299 298 287 284 283 290 289 290 287 290 293 291 290 288 292 292 289
247 249 252 253 250 255 258 259 261 262 264 263 267 274 280 283 276 275 279 281 281 277 279 281 289 289 292 283 281 283 291 296 295 295 294 293 292 290
246 246 249 250 250 253 256 259 263 265 264 266 272 278 279 278 277 269 268 270 277 277 273 276 289 300 292 283 276 274 284 291 294 295 295 294 293 290
245 243 243 249 252 250 250 252 259 264 266 263 265 270 270 267 263 255 258 261 273 279 271 282 286 302 293 285 294 290 284 286 286 290 293 293 294 288
243 243 241 245 252 251 252 253 260 272 268 262 264 268 267 267 271 266 263 257 259 264 270 285 282 284 278 291 295 294 292 297 298 293 289 290 291 288
243 245 246 247 254 254 250 253 260 262 259 257 257 261 265 270 275 275 270 267 265 268 273 268 263 268 277 282 283 292 294 297 299 296 298 296 287 280
243 245 249 250 253 250 248 252 251 245 247 250 254 262 269 270 270 270 268 268 271 273 273 268 258 262 265 268 278 285 293 293 293 292 297 298 294 288
242 240 241 243 242 250 249 242 241 243 247 251 258 264 264 257 255 259 265 273 275 276 276 279 272 264 264 267 270 277 280 280 287 292 294 293 289 282
234 236 232 229 229 230 236 240 237 235 241 249 253 254 255 255 258 264 265 265 264 274 285 291 287 279 273 272 269 268 276 281 283 290 293 293 291 286
221 228 231 231 234 235 234 235 235 235 238 243 250 251 252 253 256 257 255 256 261 269 277 286 290 288 273 260 248 266 275 283 289 293 290 289 291 293
227 230 233 235 236 237 237 237 239 239 238 237 242 247 250 251 251 251 249 253 260 267 274 279 277 273 278 284 270 235 272 285 289 289 286 286 287 292
227 232 234 234 235 235 235 235 236 235 234 238 242 241 241 244 247 249 249 253 261 269 272 269 264 264 266 281 289 284 268 273 281 287 292 293 289 289
228 230 231 232 233 234 236 236 235 233 234 237 241 243 239 238 242 246 250 255 260 262 266 271 274 277 277 275 273 277 281 270 272 277 289 292 295 293
230 231 229 228 229 230 232 233 234 234 232 235 240 241 240 238 239 243 246 249 253 261 270 274 274 269 260 261 274 286 293 299 289 277 269 263 273 281
229 229 227 225 226 227 228 229 233 237 236 235 237 238 237 237 239 242 244 247 254 261 268 271 271 269 268 270 277 284 292 298 301 303 293 281 274 274